KK4Q Weather Reports


time (UTC)temp
C
wind
direction
speed
KPH
gust
KPH
rain 1hr
cm
rain 24hr
cm
rain mn
cm
humidity
%
barometer
mb
20260506044518 15 119 0.0 1.6 0.00 0.00 0.00 84 1015.4
20260506043030 15 109 0.0 0.0 0.00 0.00 0.00 82 1015.2
20260506041518 15 325 0.0 0.0 0.00 0.00 0.00 80 1015.0
20260506040026 16 325 0.0 0.0 0.00 0.00 0.00 78 1014.8
20260506034535 17 325 0.0 0.0 0.00 0.00 0.00 75 1014.6
20260506033013 18 324 0.0 0.0 0.00 0.00 0.00 71 1014.3
20260506031521 19 324 0.0 0.0 0.00 0.00 0.00 69 1014.2
20260506030031 20 321 0.0 3.2 0.00 0.00 0.00 65 1014.0
20260506024536 21 315 1.6 4.8 0.00 0.00 0.00 61 1013.8
20260506023044 21 319 3.2 8.0 0.00 0.00 0.00 60 1013.8
20260506021530 22 130 1.6 9.7 0.00 0.00 0.00 61 1013.7
20260506020017 22 14 6.4 16.1 0.00 0.00 0.00 60 1013.7
20260506014525 22 315 4.8 16.1 0.00 0.00 0.00 58 1013.6
20260506013013 22 302 1.6 8.0 0.00 0.00 0.00 59 1013.4
20260506011520 22 310 3.2 9.7 0.00 0.00 0.00 57 1013.3
20260506010028 22 312 3.2 9.7 0.00 0.00 0.00 57 1013.3
20260506004535 22 271 1.6 12.9 0.00 0.00 0.00 56 1013.3
20260506003035 22 273 3.2 16.1 0.00 0.00 0.00 56 1013.3
20260506001559 23 291 1.6 12.9 0.00 0.00 0.00 58 1013.3
20260506000013 22 321 6.4 17.7 0.00 0.00 0.00 57 1013.4
20260505234541 23 96 6.4 14.5 0.00 0.00 0.00 56 1013.3
20260505233029 23 11 3.2 12.9 0.00 0.00 0.00 56 1013.3
20260505231536 23 47 3.2 14.5 0.00 0.00 0.00 57 1013.3
20260505230022 22 30 3.2 16.1 0.00 0.00 0.00 58 1013.4
20260505224549 22 336 4.8 22.5 0.00 0.00 0.00 57 1013.6
20260505223031 22 288 3.2 12.9 0.00 0.00 0.00 58 1013.8
20260505221517 22 331 3.2 12.9 0.00 0.00 0.00 57 1013.9
20260505220024 22 326 1.6 9.7 0.00 0.00 0.00 59 1014.0
20260505214528 22 287 1.6 11.3 0.00 0.00 0.00 58 1014.0
20260505213014 21 96 3.2 14.5 0.00 0.00 0.00 60 1014.2
20260505211522 21 174 1.6 9.7 0.00 0.00 0.00 63 1014.3
20260505210026 21 104 3.2 16.1 0.00 0.00 0.00 61 1014.5
20260505204515 21 324 4.8 12.9 0.00 0.00 0.00 60 1014.6
20260505203022 21 317 4.8 14.5 0.00 0.00 0.00 61 1014.6
20260505201529 21 332 4.8 9.7 0.00 0.00 0.00 62 1014.8
20260505200015 21 306 1.6 6.4 0.00 0.00 0.00 64 1014.7
20260505194522 20 329 4.8 9.7 0.00 0.00 0.00 62 1014.8
20260505193029 20 246 3.2 6.4 0.00 0.00 0.00 61 1014.8
20260505191513 19 90 1.6 4.8 0.00 0.00 0.00 65 1015.0
20260505190017 18 350 1.6 6.4 0.00 0.00 0.00 66 1015.1
20260505184521 18 259 3.2 11.3 0.00 0.00 0.00 65 1015.2
20260505183028 17 285 1.6 6.4 0.00 0.00 0.00 70 1015.2
20260505181531 17 105 0.0 3.2 0.00 0.00 0.00 71 1015.2
20260505180016 16 252 1.6 4.8 0.00 0.00 0.00 71 1015.3
20260505174523 15 274 0.0 4.8 0.00 0.00 0.00 74 1015.3
20260505173052 15 302 0.0 6.4 0.00 0.00 0.00 76 1015.3
20260505171520 15 317 3.2 6.4 0.00 0.00 0.00 75 1015.3
20260505170046 15 280 0.0 3.2 0.00 0.00 0.00 75 1015.2
20260505164514 15 291 1.6 3.2 0.00 0.00 0.00 76 1015.4
20260505163043 15 275 0.0 3.2 0.00 0.00 0.00 75 1015.3
20260505161529 14 216 0.0 3.2 0.00 0.00 0.00 78 1015.3
20260505153016 13 243 0.0 1.6 0.00 0.00 0.00 81 1015.4
20260505151543 13 109 0.0 0.0 0.00 0.00 0.00 84 1015.4
20260505124520 12 340 0.0 3.2 0.00 0.00 0.00 84 1014.7
20260505123027 12 29 0.0 3.2 0.00 0.00 0.00 84 1014.4
20260505121519 12 10 0.0 3.2 0.00 0.00 0.00 84 1014.4
20260505120018 12 55 0.0 1.6 0.00 0.00 0.00 83 1014.3
20260505114526 12 20 1.6 4.8 0.00 0.00 0.00 83 1014.2
20260505113031 13 328 0.0 6.4 0.00 0.00 0.00 83 1014.2
20260505111520 13 288 0.0 6.4 0.00 0.00 0.00 83 1014.1
20260505101514 13 341 0.0 1.6 0.00 0.00 0.00 82 1013.9
20260505100022 13 327 1.6 4.8 0.00 0.00 0.00 81 1013.9
20260505094530 13 325 1.6 4.8 0.00 0.00 0.00 82 1013.9
20260505093019 13 333 0.0 3.2 0.00 0.00 0.00 82 1014.1
20260505091527 13 346 1.6 4.8 0.00 0.00 0.00 81 1014.0
20260505090032 13 340 1.6 4.8 0.00 0.00 0.00 81 1014.0
20260505084520 13 320 0.0 1.6 0.00 0.00 0.00 81 1014.1
20260505083050 13 309 0.0 3.2 0.00 0.00 0.00 82 1014.2
20260505081515 13 328 1.6 4.8 0.00 0.00 0.00 81 1014.2
20260505080022 13 11 0.0 3.2 0.00 0.00 0.00 81 1014.4
20260505074528 13 300 0.0 3.2 0.00 0.00 0.00 81 1014.4
20260505073017 13 331 1.6 4.8 0.00 0.00 0.00 81 1014.3
20260505071542 13 275 0.0 1.6 0.00 0.00 0.00 81 1014.3
20260505070046 13 290 1.6 3.2 0.00 0.00 0.00 81 1014.3
20260505064530 13 320 1.6 4.8 0.00 0.00 0.00 80 1014.3
20260505063020 13 18 1.6 6.4 0.00 0.00 0.00 81 1014.3
20260505061517 13 278 1.6 4.8 0.00 0.00 0.00 80 1014.1
20260505060013 14 310 1.6 4.8 0.00 0.00 0.00 80 1014.0
20260505054518 14 355 1.6 6.4 0.00 0.00 0.00 80 1014.0
20260505053028 14 332 0.0 1.6 0.00 0.00 0.00 80 1014.0
20260505051514 14 321 0.0 1.6 0.00 0.00 0.00 79 1013.9